CMS-03 (GSAT-7R)

Last updated on Sun Jun 21 2026 00:03:09 GMT+0000 (Coordinated Universal Time)

1 66311U 25249B 26171.40667204 -.00000081 00000+0 00000+0 0 9993 2 66311 0.0166 80.7193 0001691 2.1969 46.0837 1.00271464 2380
UTC large
Height (km)
Speed (km/s)
/
Latitude / Longitude
Inclination (degrees)
Orbital Period (minutes)
Azimuth
Elevation
Range (km)
Doppler Factor

Next 0 passes for location: London (51.5072 / 0.1276)

No passes found over London.
CMS-03 (GSAT-7R)